Englewood, Florida, United States (34223)
Lat: 26.96N, Lon: 82.35W
Wx Zone: FLZ060
Local Info
Past Weather Observations for Monday, October 20, 2014

NOTE: This archive is for the closest National Weather Service station to Englewood. Information may differ from the station used for current weather conditions.

Click here for Long-term Archive

Time Weather Temperature Dewpoint Humidity Pressure Winds Precip Visibility
23:53
Clear
73°F / 23°C 68°F / 20°C 83% 29.98 in
(1015 mb)
SE 4.6 mph
(SE 7 kph)
- 10SM
22:53
Clear
73°F / 23°C 68°F / 20°C 83% 30.01 in
(1016 mb)
Calm - 10SM
21:53
Partly Cloudy
75°F / 24°C 68°F / 20°C 78% 30.01 in
(1016 mb)
Calm - 10SM
20:53
Clear
75°F / 24°C 66°F / 19°C 74% 29.98 in
(1015 mb)
N 3.5 mph
(N 6 kph)
- 10SM
19:53
Mostly Cloudy
77°F / 25°C 66°F / 19°C 69% 29.98 in
(1015 mb)
NW 5.8 mph
(NW 9 kph)
- 10SM
18:53
Partly Cloudy
79°F / 26°C 66°F / 19°C 65% 29.95 in
(1014 mb)
Calm - 10SM
17:53
Partly Cloudy
81°F / 27°C 64°F / 18°C 58% 29.95 in
(1014 mb)
NW 3.5 mph
(NW 6 kph)
- 10SM
16:53
Clear
84°F / 29°C 63°F / 17°C 48% 29.95 in
(1014 mb)
NW 6.9 mph
(NW 11 kph)
- 10SM
15:53
Clear
88°F / 31°C 64°F / 18°C 46% 29.95 in
(1014 mb)
NW 5.8 mph
(NW 9 kph)
- 10SM
14:53
Clear
88°F / 31°C 64°F / 18°C 46% 29.98 in
(1015 mb)
S 3.5 mph
(S 6 kph)
- 10SM
13:53
Clear
88°F / 31°C 64°F / 18°C 46% 29.98 in
(1015 mb)
S 4.6 mph
(S 7 kph)
- 10SM
12:53
Partly Cloudy
88°F / 31°C 64°F / 18°C 46% 30.01 in
(1016 mb)
E 6.9 mph
(E 11 kph)
- 10SM
11:53
Partly Cloudy
84°F / 29°C 64°F / 18°C 51% 30.04 in
(1017 mb)
E 8.1 mph
(E 13 kph)
- 10SM
10:53
Partly Cloudy
82°F / 28°C 64°F / 18°C 55% 30.06 in
(1018 mb)
E 8.1 mph
(E 13 kph)
- 10SM
09:53
Clear
82°F / 28°C 68°F / 20°C 62% 30.06 in
(1018 mb)
E 6.9 mph
(E 11 kph)
- 10SM
08:53
Clear
77°F / 25°C 66°F / 19°C 69% 30.06 in
(1018 mb)
ENE 6.9 mph
(ENE 11 kph)
- 10SM
07:53
Clear
72°F / 22°C 66°F / 19°C 83% 30.06 in
(1018 mb)
NE 5.8 mph
(NE 9 kph)
- 10SM
06:53
Partly Cloudy
64°F / 18°C 64°F / 18°C 100% 30.04 in
(1017 mb)
NE 3.5 mph
(NE 6 kph)
- 10SM
05:53
Partly Cloudy
Fog And Mist
64°F / 18°C 63°F / 17°C 94% 30.04 in
(1017 mb)
ENE 4.6 mph
(ENE 7 kph)
- 5SM
04:53
Clear
64°F / 18°C 63°F / 17°C 94% 30.04 in
(1017 mb)
Calm - 8SM
03:53
Clear
64°F / 18°C 63°F / 17°C 94% 30.01 in
(1016 mb)
Calm - 10SM
02:53
Clear
66°F / 19°C 63°F / 17°C 88% 30.01 in
(1016 mb)
ENE 6.9 mph
(ENE 11 kph)
- 10SM
01:53
Clear
66°F / 19°C 63°F / 17°C 88% 30.04 in
(1017 mb)
ENE 4.6 mph
(ENE 7 kph)
- 10SM
00:53
Clear
66°F / 19°C 61°F / 16°C 83% 30.04 in
(1017 mb)
E 5.8 mph
(E 9 kph)
- 10SM
Time Weather Temperature Dewpoint Humidity Pressure Winds Precip Visibility


Weather for websites

WeatherForYou.com, LLC is not responsible for any damages or problems caused by this service. Current weather conditions are obtained from the closest station including government and personal stations which may have varying degrees of accuracy. Weather forecasts are derived from the NOAA NDFD. Like all things, this site belongs to Jesus Christ... He just trusts me to maintain it. If you have any questions or comments email webmaster@weatherforyou.com

Copyright © 2014, WeatherForYou.com LLC. All rights reserved.